Year,Month,Day,Hour,Minute,Value (Times are PST for windgust in km/hr)
2017,11,15,00,00,32.20
2017,11,15,00,01,46.70
2017,11,15,00,02,48.30
2017,11,15,00,03,43.50
2017,11,15,00,04,40.20
2017,11,15,00,05,33.80
2017,11,15,00,06,62.70
2017,11,15,00,07,41.80
2017,11,15,00,08,48.30
2017,11,15,00,09,41.80
2017,11,15,00,10,37.00
2017,11,15,00,11,43.50
2017,11,15,00,12,48.30
2017,11,15,00,13,32.20
2017,11,15,00,14,49.90
2017,11,15,00,15,49.90
2017,11,15,00,16,40.20
2017,11,15,00,17,33.80
2017,11,15,00,18,35.40
2017,11,15,00,19,38.60
2017,11,15,00,20,25.70
2017,11,15,00,21,20.90
2017,11,15,00,22,37.00
2017,11,15,00,23,41.80
2017,11,15,00,24,51.50
2017,11,15,00,25,37.00
2017,11,15,00,26,48.30
2017,11,15,00,27,41.80
2017,11,15,00,28,37.00
2017,11,15,00,29,41.80
2017,11,15,00,30,38.60
2017,11,15,00,31,37.00
2017,11,15,00,32,33.80
2017,11,15,00,33,45.10
2017,11,15,00,34,35.40
2017,11,15,00,35,43.50
2017,11,15,00,36,38.60
2017,11,15,00,37,24.20
2017,11,15,00,38,32.20
2017,11,15,00,39,54.70
2017,11,15,00,40,29.00
2017,11,15,00,41,27.40
2017,11,15,00,42,37.00
2017,11,15,00,43,33.80
2017,11,15,00,44,29.00
2017,11,15,00,45,35.40
2017,11,15,00,46,37.00
2017,11,15,00,47,29.00
2017,11,15,00,48,32.20
2017,11,15,00,49,29.00
2017,11,15,00,50,24.20
2017,11,15,00,51,25.70
2017,11,15,00,52,14.50
2017,11,15,00,53,20.90
2017,11,15,00,54,22.50
2017,11,15,00,55,30.60
2017,11,15,00,56,25.70
2017,11,15,00,57,24.20
2017,11,15,00,58,22.50
2017,11,15,00,59,32.20
2017,11,15,01,00,38.60
2017,11,15,01,01,22.50
2017,11,15,01,02,35.40
2017,11,15,01,03,35.40
2017,11,15,01,04,30.60
2017,11,15,01,05,45.10
2017,11,15,01,06,40.20
2017,11,15,01,07,25.70
2017,11,15,01,08,30.60
2017,11,15,01,09,30.60
2017,11,15,01,10,33.80
2017,11,15,01,11,19.30
2017,11,15,01,12,35.40
2017,11,15,01,13,24.20
2017,11,15,01,14,22.50
2017,11,15,01,15,35.40
2017,11,15,01,16,25.70
2017,11,15,01,17,27.40
2017,11,15,01,18,25.70
2017,11,15,01,19,29.00
2017,11,15,01,20,24.20
2017,11,15,01,21,27.40
2017,11,15,01,22,24.20
2017,11,15,01,23,27.40
2017,11,15,01,24,32.20
2017,11,15,01,25,30.60
2017,11,15,01,26,29.00
2017,11,15,01,27,30.60
2017,11,15,01,28,37.00
2017,11,15,01,29,20.90
2017,11,15,01,30,30.60
2017,11,15,01,31,40.20
2017,11,15,01,32,24.20
2017,11,15,01,33,17.70
2017,11,15,01,34,17.70
2017,11,15,01,35,20.90
2017,11,15,01,36,17.70
2017,11,15,01,37,14.50
2017,11,15,01,38,8.10
2017,11,15,01,39,14.50
2017,11,15,01,40,30.60
2017,11,15,01,41,32.20
2017,11,15,01,42,30.60
2017,11,15,01,43,25.70
2017,11,15,01,44,35.40
2017,11,15,01,45,30.60
2017,11,15,01,46,24.20
2017,11,15,01,47,25.70
2017,11,15,01,48,33.80
2017,11,15,01,49,33.80
2017,11,15,01,50,25.70
2017,11,15,01,51,20.90
2017,11,15,01,52,33.80
2017,11,15,01,53,27.40
2017,11,15,01,54,25.70
2017,11,15,01,55,16.10
2017,11,15,01,56,22.50
2017,11,15,01,57,25.70
2017,11,15,01,58,25.70
2017,11,15,01,59,24.20
2017,11,15,02,00,17.70
2017,11,15,02,01,22.50
2017,11,15,02,02,22.50
2017,11,15,02,03,27.40
2017,11,15,02,04,24.20
2017,11,15,02,05,22.50
2017,11,15,02,06,29.00
2017,11,15,02,07,30.60
2017,11,15,02,08,33.80
2017,11,15,02,09,27.40
2017,11,15,02,10,17.70
2017,11,15,02,11,24.20
2017,11,15,02,12,17.70
2017,11,15,02,13,12.90
2017,11,15,02,14,25.70
2017,11,15,02,15,17.70
2017,11,15,02,16,24.20
2017,11,15,02,17,17.70
2017,11,15,02,18,22.50
2017,11,15,02,19,20.90
2017,11,15,02,20,24.20
2017,11,15,02,21,22.50
2017,11,15,02,22,22.50
2017,11,15,02,23,17.70
2017,11,15,02,24,24.20
2017,11,15,02,25,22.50
2017,11,15,02,26,27.40
2017,11,15,02,27,24.20
2017,11,15,02,28,27.40
2017,11,15,02,29,29.00
2017,11,15,02,30,30.60
2017,11,15,02,31,24.20
2017,11,15,02,32,20.90
2017,11,15,02,33,25.70
2017,11,15,02,34,27.40
2017,11,15,02,35,20.90
2017,11,15,02,36,20.90
2017,11,15,02,37,22.50
2017,11,15,02,38,24.20
2017,11,15,02,39,29.00
2017,11,15,02,40,29.00
2017,11,15,02,41,30.60
2017,11,15,02,42,17.70
2017,11,15,02,43,22.50
2017,11,15,02,44,25.70
2017,11,15,02,45,37.00
2017,11,15,02,46,30.60
2017,11,15,02,47,22.50
2017,11,15,02,48,33.80
2017,11,15,02,49,25.70
2017,11,15,02,50,22.50
2017,11,15,02,51,17.70
2017,11,15,02,52,16.10
2017,11,15,02,53,30.60
2017,11,15,02,54,30.60
2017,11,15,02,55,25.70
2017,11,15,02,56,22.50
2017,11,15,02,57,22.50
2017,11,15,02,58,17.70
2017,11,15,02,59,22.50
2017,11,15,03,00,19.30
2017,11,15,03,01,24.20
2017,11,15,03,02,27.40
2017,11,15,03,03,20.90
2017,11,15,03,04,24.20
2017,11,15,03,05,24.20
2017,11,15,03,06,25.70
2017,11,15,03,07,19.30
2017,11,15,03,08,19.30
2017,11,15,03,09,17.70
2017,11,15,03,10,19.30
2017,11,15,03,11,24.20
2017,11,15,03,12,19.30
2017,11,15,03,13,20.90
2017,11,15,03,14,16.10
2017,11,15,03,15,12.90
2017,11,15,03,16,20.90
2017,11,15,03,17,20.90
2017,11,15,03,18,19.30
2017,11,15,03,19,12.90
2017,11,15,03,20,14.50
2017,11,15,03,21,20.90
2017,11,15,03,22,16.10
2017,11,15,03,23,14.50
2017,11,15,03,24,14.50
2017,11,15,03,25,14.50
2017,11,15,03,26,22.50
2017,11,15,03,27,27.40
2017,11,15,03,28,32.20
2017,11,15,03,29,29.00
2017,11,15,03,30,20.90
2017,11,15,03,31,22.50
2017,11,15,03,32,24.20
2017,11,15,03,33,27.40
2017,11,15,03,34,27.40
2017,11,15,03,35,22.50
2017,11,15,03,36,27.40
2017,11,15,03,37,37.00
2017,11,15,03,38,25.70
2017,11,15,03,39,29.00
2017,11,15,03,40,20.90
2017,11,15,03,41,22.50
2017,11,15,03,42,16.10
2017,11,15,03,43,24.20
2017,11,15,03,44,24.20
2017,11,15,03,45,22.50
2017,11,15,03,46,33.80
2017,11,15,03,47,16.10
2017,11,15,03,48,30.60
2017,11,15,03,49,27.40
2017,11,15,03,50,27.40
2017,11,15,03,51,22.50
2017,11,15,03,52,20.90
2017,11,15,03,53,32.20
2017,11,15,03,54,17.70
2017,11,15,03,55,20.90
2017,11,15,03,56,29.00
2017,11,15,03,57,25.70
2017,11,15,03,58,38.60
2017,11,15,03,59,25.70
2017,11,15,04,00,24.20
2017,11,15,04,01,22.50
2017,11,15,04,02,27.40
2017,11,15,04,03,20.90
2017,11,15,04,04,19.30
2017,11,15,04,05,20.90
2017,11,15,04,06,25.70
2017,11,15,04,07,25.70
2017,11,15,04,08,20.90
2017,11,15,04,09,33.80
2017,11,15,04,10,22.50
2017,11,15,04,11,24.20
2017,11,15,04,12,29.00
2017,11,15,04,13,32.20
2017,11,15,04,14,29.00
2017,11,15,04,15,29.00
2017,11,15,04,16,24.20
2017,11,15,04,17,19.30
2017,11,15,04,18,29.00
2017,11,15,04,19,19.30
2017,11,15,04,20,20.90
2017,11,15,04,21,25.70
2017,11,15,04,22,27.40
2017,11,15,04,23,24.20
2017,11,15,04,24,20.90
2017,11,15,04,25,20.90
2017,11,15,04,26,19.30
2017,11,15,04,27,22.50
2017,11,15,04,28,8.10
2017,11,15,04,29,20.90
2017,11,15,04,30,11.30
2017,11,15,04,31,14.50
2017,11,15,04,32,11.30
2017,11,15,04,33,11.30
2017,11,15,04,34,19.30
2017,11,15,04,35,19.30
2017,11,15,04,36,16.10
2017,11,15,04,37,17.70
2017,11,15,04,38,17.70
2017,11,15,04,39,20.90
2017,11,15,04,40,12.90
2017,11,15,04,41,8.10
2017,11,15,04,42,12.90
2017,11,15,04,43,16.10
2017,11,15,04,44,11.30
2017,11,15,04,45,12.90
2017,11,15,04,46,11.30
2017,11,15,04,47,8.10
2017,11,15,04,48,4.80
2017,11,15,04,49,11.30
2017,11,15,04,50,9.60
2017,11,15,04,51,12.90
2017,11,15,04,52,8.10
2017,11,15,04,53,12.90
2017,11,15,04,54,11.30
2017,11,15,04,55,9.60
2017,11,15,04,56,16.10
2017,11,15,04,57,16.10
2017,11,15,04,58,22.50
2017,11,15,04,59,16.10
2017,11,15,05,00,12.90
2017,11,15,05,01,25.70
2017,11,15,05,02,17.70
2017,11,15,05,03,19.30
2017,11,15,05,04,17.70
2017,11,15,05,05,24.20
2017,11,15,05,06,19.30
2017,11,15,05,07,20.90
2017,11,15,05,08,14.50
2017,11,15,05,09,14.50
2017,11,15,05,10,20.90
2017,11,15,05,11,14.50
2017,11,15,05,12,16.10
2017,11,15,05,13,11.30
2017,11,15,05,14,9.60
2017,11,15,05,15,12.90
2017,11,15,05,16,20.90
2017,11,15,05,17,22.50
2017,11,15,05,18,17.70
2017,11,15,05,19,22.50
2017,11,15,05,20,12.90
2017,11,15,05,21,14.50
2017,11,15,05,22,14.50
2017,11,15,05,23,17.70
2017,11,15,05,24,17.70
2017,11,15,05,25,12.90
2017,11,15,05,26,9.60
2017,11,15,05,27,12.90
2017,11,15,05,28,9.60
2017,11,15,05,29,3.20
2017,11,15,05,30,6.40
2017,11,15,05,31,4.80
2017,11,15,05,32,3.20
2017,11,15,05,33,3.20
2017,11,15,05,34,3.20
2017,11,15,05,35,8.10
2017,11,15,05,36,8.10
2017,11,15,05,37,4.80
2017,11,15,05,38,3.20
2017,11,15,05,39,6.40
2017,11,15,05,40,4.80
2017,11,15,05,41,6.40
2017,11,15,05,42,3.20
2017,11,15,05,43,8.10
2017,11,15,05,44,6.40
2017,11,15,05,45,4.80
2017,11,15,05,46,3.20
2017,11,15,05,47,4.80
2017,11,15,05,48,4.80
2017,11,15,05,49,4.80
2017,11,15,05,50,6.40
2017,11,15,05,51,4.80
2017,11,15,05,52,6.40
2017,11,15,05,53,6.40
2017,11,15,05,54,11.30
2017,11,15,05,55,8.10
2017,11,15,05,56,8.10
2017,11,15,05,57,6.40
2017,11,15,05,58,9.60
2017,11,15,05,59,9.60
2017,11,15,06,00,8.10
2017,11,15,06,01,6.40
2017,11,15,06,02,4.80
2017,11,15,06,03,6.40
2017,11,15,06,04,6.40
2017,11,15,06,05,6.40
2017,11,15,06,06,8.10
2017,11,15,06,07,6.40
2017,11,15,06,08,6.40
2017,11,15,06,09,6.40
2017,11,15,06,10,6.40
2017,11,15,06,11,8.10
2017,11,15,06,12,8.10
2017,11,15,06,13,4.80
2017,11,15,06,14,4.80
2017,11,15,06,15,6.40
2017,11,15,06,16,4.80
2017,11,15,06,17,4.80
2017,11,15,06,18,6.40
2017,11,15,06,19,3.20
2017,11,15,06,20,3.20
2017,11,15,06,21,1.60
2017,11,15,06,22,1.60
2017,11,15,06,23,1.60
2017,11,15,06,24,3.20
2017,11,15,06,25,6.40
2017,11,15,06,26,1.60
2017,11,15,06,27,4.80
2017,11,15,06,28,1.60
2017,11,15,06,29,3.20
2017,11,15,06,30,3.20
2017,11,15,06,31,4.80
2017,11,15,06,32,6.40
2017,11,15,06,33,6.40
2017,11,15,06,34,4.80
2017,11,15,06,35,4.80
2017,11,15,06,36,4.80
2017,11,15,06,37,1.60
2017,11,15,06,42,3.20
2017,11,15,06,43,3.20
2017,11,15,06,44,3.20
2017,11,15,06,45,1.60
2017,11,15,06,48,1.60
2017,11,15,06,49,3.20
2017,11,15,06,50,4.80
2017,11,15,06,51,4.80
2017,11,15,06,52,4.80
2017,11,15,06,53,3.20
2017,11,15,06,54,3.20
2017,11,15,06,55,3.20
2017,11,15,06,56,4.80
2017,11,15,06,57,4.80
2017,11,15,06,58,3.20
2017,11,15,06,59,1.60
2017,11,15,07,00,1.60
2017,11,15,07,02,1.60
2017,11,15,07,04,1.60
2017,11,15,07,05,1.60
2017,11,15,07,09,1.60
2017,11,15,07,12,1.60
2017,11,15,07,13,4.80
2017,11,15,07,14,4.80
2017,11,15,07,15,4.80
2017,11,15,07,16,8.10
2017,11,15,07,17,8.10
2017,11,15,07,18,9.60
2017,11,15,07,19,6.40
2017,11,15,07,20,8.10
2017,11,15,07,21,8.10
2017,11,15,07,22,9.60
2017,11,15,07,23,8.10
2017,11,15,07,24,4.80
2017,11,15,07,25,4.80
2017,11,15,07,26,4.80
2017,11,15,07,27,8.10
2017,11,15,07,28,6.40
2017,11,15,07,29,8.10
2017,11,15,07,30,9.60
2017,11,15,07,31,11.30
2017,11,15,07,32,9.60
2017,11,15,07,33,6.40
2017,11,15,07,34,6.40
2017,11,15,07,35,6.40
2017,11,15,07,36,3.20
2017,11,15,07,37,4.80
2017,11,15,07,38,3.20
2017,11,15,07,39,4.80
2017,11,15,07,40,3.20
2017,11,15,07,41,6.40
2017,11,15,07,42,4.80
2017,11,15,07,43,6.40
2017,11,15,07,44,4.80
2017,11,15,07,45,6.40
2017,11,15,07,46,4.80
2017,11,15,07,47,6.40
2017,11,15,07,48,4.80
2017,11,15,07,49,4.80
2017,11,15,07,50,4.80
2017,11,15,07,51,8.10
2017,11,15,07,52,4.80
2017,11,15,07,53,4.80
2017,11,15,07,54,11.30
2017,11,15,07,55,8.10
2017,11,15,07,56,11.30
2017,11,15,07,57,6.40
2017,11,15,07,58,11.30
2017,11,15,07,59,8.10
2017,11,15,08,00,6.40
2017,11,15,08,01,6.40
2017,11,15,08,02,6.40
2017,11,15,08,03,9.60
2017,11,15,08,04,6.40
2017,11,15,08,05,8.10
2017,11,15,08,06,9.60
2017,11,15,08,07,8.10
2017,11,15,08,08,6.40
2017,11,15,08,09,8.10
2017,11,15,08,10,4.80
2017,11,15,08,11,8.10
2017,11,15,08,12,9.60
2017,11,15,08,13,4.80
2017,11,15,08,14,8.10
2017,11,15,08,15,6.40
2017,11,15,08,16,1.60
2017,11,15,08,17,4.80
2017,11,15,08,18,3.20
2017,11,15,08,19,4.80
2017,11,15,08,20,3.20
2017,11,15,08,21,6.40
2017,11,15,08,22,4.80
2017,11,15,08,23,4.80
2017,11,15,08,24,1.60
2017,11,15,08,25,3.20
2017,11,15,08,26,3.20
2017,11,15,08,27,4.80
2017,11,15,08,28,4.80
2017,11,15,08,29,4.80
2017,11,15,08,30,3.20
2017,11,15,08,31,1.60
2017,11,15,08,32,3.20
2017,11,15,08,33,4.80
2017,11,15,08,34,4.80
2017,11,15,08,35,3.20
2017,11,15,08,37,1.60
2017,11,15,08,39,1.60
2017,11,15,08,40,1.60
2017,11,15,08,42,1.60
2017,11,15,08,43,1.60
2017,11,15,08,45,1.60
2017,11,15,08,48,1.60
2017,11,15,08,49,1.60
2017,11,15,08,50,1.60
2017,11,15,08,51,1.60
2017,11,15,08,52,1.60
2017,11,15,08,53,3.20
2017,11,15,08,54,4.80
2017,11,15,08,55,3.20
2017,11,15,08,56,3.20
2017,11,15,08,57,1.60
2017,11,15,08,58,4.80
2017,11,15,08,59,3.20
2017,11,15,09,00,3.20
2017,11,15,09,01,1.60
2017,11,15,09,02,3.20
2017,11,15,09,03,1.60
2017,11,15,09,04,4.80
2017,11,15,09,05,3.20
2017,11,15,09,06,4.80
2017,11,15,09,07,6.40
2017,11,15,09,08,11.30
2017,11,15,09,09,11.30
2017,11,15,09,10,11.30
2017,11,15,09,11,12.90
2017,11,15,09,12,9.60
2017,11,15,09,13,11.30
2017,11,15,09,14,8.10
2017,11,15,09,15,8.10
2017,11,15,09,16,8.10
2017,11,15,09,17,12.90
2017,11,15,09,18,17.70
2017,11,15,09,19,14.50
2017,11,15,09,20,20.90
2017,11,15,09,21,17.70
2017,11,15,09,22,14.50
2017,11,15,09,23,12.90
2017,11,15,09,24,4.80
2017,11,15,09,25,11.30
2017,11,15,09,26,11.30
2017,11,15,09,27,12.90
2017,11,15,09,28,11.30
2017,11,15,09,29,11.30
2017,11,15,09,30,12.90
2017,11,15,09,31,12.90
2017,11,15,09,32,16.10
2017,11,15,09,33,16.10
2017,11,15,09,34,11.30
2017,11,15,09,35,14.50
2017,11,15,09,36,14.50
2017,11,15,09,37,16.10
2017,11,15,09,38,14.50
2017,11,15,09,39,14.50
2017,11,15,09,40,11.30
2017,11,15,09,41,11.30
2017,11,15,09,42,12.90
2017,11,15,09,43,12.90
2017,11,15,09,44,16.10
2017,11,15,09,45,17.70
2017,11,15,09,46,12.90
2017,11,15,09,47,14.50
2017,11,15,09,48,12.90
2017,11,15,09,49,11.30
2017,11,15,09,50,17.70
2017,11,15,09,51,17.70
2017,11,15,09,52,17.70
2017,11,15,09,53,17.70
2017,11,15,09,54,16.10
2017,11,15,09,55,16.10
2017,11,15,09,56,16.10
2017,11,15,09,57,16.10
2017,11,15,09,58,16.10
2017,11,15,09,59,14.50
2017,11,15,10,00,19.30
2017,11,15,10,01,17.70
2017,11,15,10,02,16.10
2017,11,15,10,03,17.70
2017,11,15,10,04,14.50
2017,11,15,10,05,11.30
2017,11,15,10,06,12.90
2017,11,15,10,07,20.90
2017,11,15,10,08,25.70
2017,11,15,10,09,19.30
2017,11,15,10,10,19.30
2017,11,15,10,11,14.50
2017,11,15,10,12,14.50
2017,11,15,10,13,16.10
2017,11,15,10,14,16.10
2017,11,15,10,15,17.70
2017,11,15,10,16,25.70
2017,11,15,10,17,22.50
2017,11,15,10,18,22.50
2017,11,15,10,19,20.90
2017,11,15,10,20,20.90
2017,11,15,10,21,17.70
2017,11,15,10,22,29.00
2017,11,15,10,23,20.90
2017,11,15,10,24,19.30
2017,11,15,10,25,17.70
2017,11,15,10,26,24.20
2017,11,15,10,27,14.50
2017,11,15,10,28,17.70
2017,11,15,10,29,20.90
2017,11,15,10,30,16.10
2017,11,15,10,31,17.70
2017,11,15,10,32,22.50
2017,11,15,10,33,29.00
2017,11,15,10,34,19.30
2017,11,15,10,35,19.30
2017,11,15,10,36,16.10
2017,11,15,10,37,17.70
2017,11,15,10,38,22.50
2017,11,15,10,39,29.00
2017,11,15,10,40,24.20
2017,11,15,10,41,24.20
2017,11,15,10,42,22.50
2017,11,15,10,43,22.50
2017,11,15,10,44,22.50
2017,11,15,10,45,24.20
2017,11,15,10,46,17.70
2017,11,15,10,47,22.50
2017,11,15,10,48,17.70
2017,11,15,10,49,16.10
2017,11,15,10,50,22.50
2017,11,15,10,51,19.30
2017,11,15,10,52,20.90
2017,11,15,10,53,16.10
2017,11,15,10,54,22.50
2017,11,15,10,55,25.70
2017,11,15,10,56,20.90
2017,11,15,10,57,22.50
2017,11,15,10,58,14.50
2017,11,15,10,59,17.70
2017,11,15,11,00,25.70
2017,11,15,11,01,16.10
2017,11,15,11,02,20.90
2017,11,15,11,03,22.50
2017,11,15,11,04,17.70
2017,11,15,11,05,16.10
2017,11,15,11,06,25.70
2017,11,15,11,07,19.30
2017,11,15,11,08,17.70
2017,11,15,11,09,12.90
2017,11,15,11,10,17.70
2017,11,15,11,11,12.90
2017,11,15,11,12,14.50
2017,11,15,11,13,17.70
2017,11,15,11,14,22.50
2017,11,15,11,15,27.40
2017,11,15,11,16,25.70
2017,11,15,11,17,27.40
2017,11,15,11,18,22.50
2017,11,15,11,19,20.90
2017,11,15,11,20,27.40
2017,11,15,11,21,29.00
2017,11,15,11,22,25.70
2017,11,15,11,23,22.50
2017,11,15,11,24,20.90
2017,11,15,11,25,22.50
2017,11,15,11,26,14.50
2017,11,15,11,27,16.10
2017,11,15,11,28,22.50
2017,11,15,11,29,14.50
2017,11,15,11,30,14.50
2017,11,15,11,31,14.50
2017,11,15,11,32,22.50
2017,11,15,11,33,24.20
2017,11,15,11,34,16.10
2017,11,15,11,35,19.30
2017,11,15,11,36,24.20
2017,11,15,11,37,17.70
2017,11,15,11,38,24.20
2017,11,15,11,39,20.90
2017,11,15,11,40,22.50
2017,11,15,11,41,22.50
2017,11,15,11,42,20.90
2017,11,15,11,43,16.10
2017,11,15,11,44,16.10
2017,11,15,11,45,20.90
2017,11,15,11,46,20.90
2017,11,15,11,47,24.20
2017,11,15,11,48,27.40
2017,11,15,11,49,24.20
2017,11,15,11,50,20.90
2017,11,15,11,51,17.70
2017,11,15,11,52,17.70
2017,11,15,11,53,25.70
2017,11,15,11,54,20.90
2017,11,15,11,55,20.90
2017,11,15,11,56,11.30
2017,11,15,11,57,16.10
2017,11,15,11,58,19.30
2017,11,15,11,59,16.10
2017,11,15,12,00,16.10
2017,11,15,12,01,16.10
2017,11,15,12,02,11.30
2017,11,15,12,03,6.40
2017,11,15,12,04,9.60
2017,11,15,12,05,14.50
2017,11,15,12,06,14.50
2017,11,15,12,07,12.90
2017,11,15,12,08,16.10
2017,11,15,12,09,22.50
2017,11,15,12,10,11.30
2017,11,15,12,11,24.20
2017,11,15,12,12,22.50
2017,11,15,12,13,24.20
2017,11,15,12,14,25.70
2017,11,15,12,15,24.20
2017,11,15,12,16,25.70
2017,11,15,12,17,27.40
2017,11,15,12,18,20.90
2017,11,15,12,19,20.90
2017,11,15,12,20,17.70
2017,11,15,12,21,16.10
2017,11,15,12,22,27.40
2017,11,15,12,23,25.70
2017,11,15,12,24,20.90
2017,11,15,12,25,17.70
2017,11,15,12,26,20.90
2017,11,15,12,27,30.60
2017,11,15,12,28,24.20
2017,11,15,12,29,25.70
2017,11,15,12,30,22.50
2017,11,15,12,31,22.50
2017,11,15,12,32,25.70
2017,11,15,12,33,24.20
2017,11,15,12,34,19.30
2017,11,15,12,35,29.00
2017,11,15,12,36,22.50
2017,11,15,12,37,24.20
2017,11,15,12,38,25.70
2017,11,15,12,39,24.20
2017,11,15,12,40,29.00
2017,11,15,12,41,27.40
2017,11,15,12,42,24.20
2017,11,15,12,43,19.30
2017,11,15,12,44,24.20
2017,11,15,12,45,25.70
2017,11,15,12,46,29.00
2017,11,15,12,47,29.00
2017,11,15,12,48,22.50
2017,11,15,12,49,25.70
2017,11,15,12,50,20.90
2017,11,15,12,51,20.90
2017,11,15,12,52,22.50
2017,11,15,12,53,22.50
2017,11,15,12,54,22.50
2017,11,15,12,55,24.20
2017,11,15,12,56,25.70
2017,11,15,12,57,24.20
2017,11,15,12,58,22.50
2017,11,15,12,59,24.20
2017,11,15,13,00,30.60
2017,11,15,13,01,16.10
2017,11,15,13,02,30.60
2017,11,15,13,03,25.70
2017,11,15,13,04,25.70
2017,11,15,13,05,22.50
2017,11,15,13,06,29.00
2017,11,15,13,07,22.50
2017,11,15,13,08,20.90
2017,11,15,13,09,19.30
2017,11,15,13,10,24.20
2017,11,15,13,11,29.00
2017,11,15,13,12,17.70
2017,11,15,13,13,17.70
2017,11,15,13,14,27.40
2017,11,15,13,15,24.20
2017,11,15,13,16,19.30
2017,11,15,13,17,16.10
2017,11,15,13,18,20.90
2017,11,15,13,19,24.20
2017,11,15,13,20,19.30
2017,11,15,13,21,17.70
2017,11,15,13,22,20.90
2017,11,15,13,23,20.90
2017,11,15,13,24,20.90
2017,11,15,13,25,17.70
2017,11,15,13,26,9.60
2017,11,15,13,27,22.50
2017,11,15,13,28,25.70
2017,11,15,13,29,19.30
2017,11,15,13,30,19.30
2017,11,15,13,31,30.60
2017,11,15,13,32,22.50
2017,11,15,13,33,29.00
2017,11,15,13,34,22.50
2017,11,15,13,35,20.90
2017,11,15,13,36,20.90
2017,11,15,13,37,16.10
2017,11,15,13,38,11.30
2017,11,15,13,39,11.30
2017,11,15,13,40,12.90
2017,11,15,13,41,12.90
2017,11,15,13,42,16.10
2017,11,15,13,43,19.30
2017,11,15,13,44,19.30
2017,11,15,13,45,17.70
2017,11,15,13,46,12.90
2017,11,15,13,47,20.90
2017,11,15,13,48,17.70
2017,11,15,13,49,12.90
2017,11,15,13,50,17.70
2017,11,15,13,51,16.10
2017,11,15,13,52,17.70
2017,11,15,13,53,20.90
2017,11,15,13,54,9.60
2017,11,15,13,55,17.70
2017,11,15,13,56,12.90
2017,11,15,13,57,14.50
2017,11,15,13,58,12.90
2017,11,15,13,59,19.30
2017,11,15,14,00,16.10
2017,11,15,14,01,14.50
2017,11,15,14,02,11.30
2017,11,15,14,03,11.30
2017,11,15,14,04,12.90
2017,11,15,14,05,11.30
2017,11,15,14,06,12.90
2017,11,15,14,07,8.10
2017,11,15,14,08,4.80
2017,11,15,14,09,8.10
2017,11,15,14,10,6.40
2017,11,15,14,11,3.20
2017,11,15,14,12,11.30
2017,11,15,14,13,11.30
2017,11,15,14,14,8.10
2017,11,15,14,15,8.10
2017,11,15,14,16,8.10
2017,11,15,14,17,11.30
2017,11,15,14,18,11.30
2017,11,15,14,19,11.30
2017,11,15,14,20,12.90
2017,11,15,14,21,8.10
2017,11,15,14,22,11.30
2017,11,15,14,23,11.30
2017,11,15,14,24,6.40
2017,11,15,14,25,9.60
2017,11,15,14,26,9.60
2017,11,15,14,27,11.30
2017,11,15,14,28,14.50
2017,11,15,14,29,11.30
2017,11,15,14,30,11.30
2017,11,15,14,31,14.50
2017,11,15,14,32,14.50
2017,11,15,14,33,12.90
2017,11,15,14,34,14.50
2017,11,15,14,35,11.30
2017,11,15,14,36,11.30
2017,11,15,14,37,20.90
2017,11,15,14,38,12.90
2017,11,15,14,39,11.30
2017,11,15,14,40,16.10
2017,11,15,14,41,14.50
2017,11,15,14,42,11.30
2017,11,15,14,43,16.10
2017,11,15,14,44,17.70
2017,11,15,14,45,14.50
2017,11,15,14,46,14.50
2017,11,15,14,47,22.50
2017,11,15,14,48,14.50
2017,11,15,14,49,12.90
2017,11,15,14,50,12.90
2017,11,15,14,51,12.90
2017,11,15,14,52,11.30
2017,11,15,14,53,12.90
2017,11,15,14,54,16.10
2017,11,15,14,55,14.50
2017,11,15,14,56,11.30
2017,11,15,14,57,9.60
2017,11,15,14,58,8.10
2017,11,15,14,59,14.50
2017,11,15,15,00,9.60
2017,11,15,15,01,11.30
2017,11,15,15,02,12.90
2017,11,15,15,03,12.90
2017,11,15,15,04,11.30
2017,11,15,15,05,9.60
2017,11,15,15,06,9.60
2017,11,15,15,07,12.90
2017,11,15,15,08,11.30
2017,11,15,15,09,12.90
2017,11,15,15,10,12.90
2017,11,15,15,11,11.30
2017,11,15,15,12,12.90
2017,11,15,15,13,9.60
2017,11,15,15,14,11.30
2017,11,15,15,15,11.30
2017,11,15,15,16,16.10
2017,11,15,15,17,11.30
2017,11,15,15,18,6.40
2017,11,15,15,19,9.60
2017,11,15,15,20,14.50
2017,11,15,15,21,9.60
2017,11,15,15,22,12.90
2017,11,15,15,23,3.20
2017,11,15,15,24,4.80
2017,11,15,15,25,8.10
2017,11,15,15,26,6.40
2017,11,15,15,27,4.80
2017,11,15,15,28,12.90
2017,11,15,15,29,4.80
2017,11,15,15,30,4.80
2017,11,15,15,31,6.40
2017,11,15,15,32,6.40
2017,11,15,15,33,4.80
2017,11,15,15,34,8.10
2017,11,15,15,35,8.10
2017,11,15,15,36,6.40
2017,11,15,15,37,6.40
2017,11,15,15,38,8.10
2017,11,15,15,39,8.10
2017,11,15,15,40,8.10
2017,11,15,15,41,6.40
2017,11,15,15,42,8.10
2017,11,15,15,43,9.60
2017,11,15,15,44,9.60
2017,11,15,15,45,9.60
2017,11,15,15,46,9.60
2017,11,15,15,47,6.40
2017,11,15,15,48,6.40
2017,11,15,15,49,8.10
2017,11,15,15,50,6.40
2017,11,15,15,51,4.80
2017,11,15,15,52,6.40
2017,11,15,15,53,6.40
2017,11,15,15,54,6.40
2017,11,15,15,55,8.10
2017,11,15,15,56,9.60
2017,11,15,15,57,6.40
2017,11,15,15,58,9.60
2017,11,15,15,59,11.30
2017,11,15,16,00,8.10
2017,11,15,16,01,4.80
2017,11,15,16,02,6.40
2017,11,15,16,03,4.80
2017,11,15,16,04,4.80
2017,11,15,16,05,3.20
2017,11,15,16,06,4.80
2017,11,15,16,07,8.10
2017,11,15,16,08,6.40
2017,11,15,16,09,6.40
2017,11,15,16,10,6.40
2017,11,15,16,11,4.80
2017,11,15,16,12,8.10
2017,11,15,16,13,8.10
2017,11,15,16,14,4.80
2017,11,15,16,15,6.40
2017,11,15,16,16,8.10
2017,11,15,16,17,6.40
2017,11,15,16,18,8.10
2017,11,15,16,19,9.60
2017,11,15,16,20,8.10
2017,11,15,16,21,8.10
2017,11,15,16,22,6.40
2017,11,15,16,23,6.40
2017,11,15,16,24,9.60
2017,11,15,16,25,9.60
2017,11,15,16,26,6.40
2017,11,15,16,27,4.80
2017,11,15,16,28,6.40
2017,11,15,16,29,6.40
2017,11,15,16,30,4.80
2017,11,15,16,31,4.80
2017,11,15,16,32,3.20
2017,11,15,16,33,3.20
2017,11,15,16,35,1.60
2017,11,15,16,36,3.20
2017,11,15,16,37,4.80
2017,11,15,16,38,4.80
2017,11,15,16,39,3.20
2017,11,15,16,40,6.40
2017,11,15,16,41,4.80
2017,11,15,16,42,4.80
2017,11,15,16,43,4.80
2017,11,15,16,44,4.80
2017,11,15,16,45,4.80
2017,11,15,16,46,1.60
2017,11,15,16,47,1.60
2017,11,15,16,48,3.20
2017,11,15,16,49,1.60
2017,11,15,16,52,1.60
2017,11,15,16,53,3.20
2017,11,15,16,56,1.60
2017,11,15,16,57,3.20
2017,11,15,16,58,3.20
2017,11,15,16,59,3.20
2017,11,15,17,00,1.60
2017,11,15,17,01,3.20
2017,11,15,17,02,1.60
2017,11,15,17,03,3.20
2017,11,15,17,04,1.60
2017,11,15,17,05,3.20
2017,11,15,17,06,1.60
2017,11,15,17,09,1.60
2017,11,15,17,17,1.60
2017,11,15,17,18,4.80
2017,11,15,17,19,6.40
2017,11,15,17,20,6.40
2017,11,15,17,21,6.40
2017,11,15,17,22,6.40
2017,11,15,17,23,6.40
2017,11,15,17,24,3.20
2017,11,15,17,25,4.80
2017,11,15,17,26,4.80
2017,11,15,17,27,4.80
2017,11,15,17,28,6.40
2017,11,15,17,29,6.40
2017,11,15,17,30,4.80
2017,11,15,17,31,3.20
2017,11,15,17,32,3.20
2017,11,15,17,33,4.80
2017,11,15,17,34,1.60
2017,11,15,17,38,3.20
2017,11,15,17,39,3.20
2017,11,15,17,40,3.20
2017,11,15,17,41,1.60
2017,11,15,17,43,1.60
2017,11,15,18,22,1.60
2017,11,15,18,25,1.60
2017,11,15,18,48,1.60
2017,11,15,18,49,1.60
2017,11,15,18,51,1.60
2017,11,15,18,52,1.60
2017,11,15,18,53,1.60
2017,11,15,19,02,1.60
2017,11,15,19,06,1.60
2017,11,15,19,07,1.60
2017,11,15,19,08,1.60
2017,11,15,19,21,1.60
2017,11,15,19,30,1.60
2017,11,15,19,31,1.60
2017,11,15,19,36,1.60
2017,11,15,19,39,1.60
2017,11,15,19,40,1.60
2017,11,15,19,47,1.60
2017,11,15,19,56,1.60
2017,11,15,19,57,3.20
2017,11,15,19,58,3.20
2017,11,15,19,59,1.60
2017,11,15,20,02,1.60
2017,11,15,20,07,1.60
2017,11,15,20,08,3.20
2017,11,15,20,09,4.80
2017,11,15,20,10,1.60
2017,11,15,20,11,1.60
2017,11,15,20,12,1.60
2017,11,15,20,14,1.60